AOS69 EGNS-EGNH

Flight info

Callsign AOS69
Flight time 0h 43m
Altitude 9000
Route NINEB MWT GETNO
Aircraft DA40/L-SDFGYR/S

Departure

Time 2026-04-26 17:55
Airport Isle of Man Airport (EGNS)

Arrival

Time 2026-04-26 18:38
Airport Blackpool Airport (EGNH)
Time Latitude Longitude Altitude Speed Heading
2026-04-26 17:42 54.08369 -4.63696 38 ft 0 kts 176°
2026-04-26 17:46 54.08370 -4.63696 38 ft 0 kts 176°
2026-04-26 17:49 54.08364 -4.63695 38 ft 5 kts 160°
2026-04-26 17:49 54.08356 -4.63566 37 ft 11 kts 144°
2026-04-26 17:49 54.08366 -4.63379 35 ft 22 kts 78°
2026-04-26 17:49 54.08402 -4.63090 33 ft 28 kts 78°
2026-04-26 17:50 54.08442 -4.62770 33 ft 17 kts 78°
2026-04-26 17:50 54.08447 -4.62732 34 ft 4 kts 78°
2026-04-26 17:50 54.08454 -4.62674 34 ft 13 kts 78°
2026-04-26 17:50 54.08483 -4.62451 35 ft 23 kts 77°
2026-04-26 17:51 54.08526 -4.62104 30 ft 35 kts 78°
2026-04-26 17:51 54.08549 -4.61765 24 ft 30 kts 96°
2026-04-26 17:51 54.08540 -4.61619 21 ft 0 kts 96°
2026-04-26 17:53 54.08539 -4.61598 21 ft 7 kts 94°
2026-04-26 17:54 54.08452 -4.61431 18 ft 12 kts 227°
2026-04-26 17:54 54.08442 -4.61475 19 ft 0 kts 258°
2026-04-26 17:54 54.08442 -4.61480 19 ft 0 kts 258°
2026-04-26 17:55 54.08438 -4.61512 19 ft 18 kts 257°
2026-04-26 17:55 54.08360 -4.62124 114 ft 70 kts 255°
2026-04-26 17:55 54.08226 -4.62944 446 ft 73 kts 251°
2026-04-26 17:55 54.08197 -4.63856 740 ft 82 kts 271°
2026-04-26 17:56 54.08279 -4.64825 1076 ft 82 kts 261°
2026-04-26 17:56 54.08083 -4.66575 1592 ft 64 kts 257°
2026-04-26 17:57 54.07913 -4.68056 1939 ft 71 kts 257°
2026-04-26 17:57 54.07795 -4.68990 2020 ft 87 kts 257°
2026-04-26 17:57 54.07623 -4.69924 2110 ft 81 kts 229°
2026-04-26 17:57 54.07097 -4.70016 2183 ft 81 kts 172°
2026-04-26 17:58 54.06504 -4.67748 2508 ft 80 kts 90°
2026-04-26 17:59 54.06515 -4.65731 2785 ft 90 kts 89°
2026-04-26 17:59 54.06517 -4.64651 2917 ft 93 kts 90°
2026-04-26 17:59 54.06516 -4.63543 3055 ft 95 kts 90°
2026-04-26 17:59 54.06514 -4.62406 3192 ft 97 kts 90°
2026-04-26 18:00 54.06511 -4.61245 3323 ft 98 kts 90°
2026-04-26 18:00 54.06507 -4.60092 3476 ft 97 kts 90°
2026-04-26 18:00 54.06503 -4.58945 3627 ft 97 kts 90°
2026-04-26 18:00 54.06499 -4.57790 3776 ft 98 kts 90°
2026-04-26 18:01 54.06494 -4.56639 3932 ft 97 kts 90°
2026-04-26 18:01 54.06490 -4.55521 4102 ft 95 kts 90°
2026-04-26 18:01 54.06485 -4.54401 4273 ft 94 kts 90°
2026-04-26 18:01 54.06480 -4.53286 4449 ft 95 kts 91°
2026-04-26 18:02 54.06475 -4.52155 4629 ft 96 kts 91°
2026-04-26 18:02 54.06472 -4.51399 4749 ft 97 kts 91°
2026-04-26 18:02 54.06464 -4.49858 4992 ft 98 kts 91°
2026-04-26 18:02 54.06458 -4.48701 5169 ft 98 kts 92°
2026-04-26 18:03 54.06453 -4.47542 5345 ft 98 kts 92°
2026-04-26 18:03 54.06446 -4.46383 5528 ft 98 kts 92°
2026-04-26 18:03 54.06441 -4.45220 5709 ft 98 kts 93°
2026-04-26 18:03 54.06434 -4.44060 5883 ft 100 kts 93°
2026-04-26 18:04 54.06428 -4.42874 6059 ft 101 kts 93°
2026-04-26 18:04 54.06422 -4.41680 6239 ft 101 kts 94°
2026-04-26 18:04 54.06415 -4.40481 6419 ft 101 kts 94°
2026-04-26 18:05 54.06402 -4.38071 6774 ft 102 kts 95°
2026-04-26 18:05 54.06394 -4.36862 6944 ft 102 kts 95°
2026-04-26 18:05 54.06387 -4.35666 7112 ft 102 kts 95°
2026-04-26 18:05 54.06380 -4.34452 7283 ft 103 kts 95°
2026-04-26 18:06 54.06372 -4.33235 7455 ft 103 kts 95°
2026-04-26 18:06 54.06365 -4.32015 7630 ft 103 kts 95°
2026-04-26 18:06 54.06357 -4.30795 7805 ft 103 kts 95°
2026-04-26 18:06 54.06349 -4.29572 7981 ft 103 kts 95°
2026-04-26 18:07 54.06341 -4.28346 8156 ft 104 kts 95°
2026-04-26 18:07 54.06333 -4.27119 8333 ft 104 kts 95°
2026-04-26 18:07 54.06325 -4.25901 8509 ft 104 kts 95°
2026-04-26 18:07 54.06320 -4.25064 8630 ft 104 kts 95°
2026-04-26 18:08 54.06308 -4.23426 8870 ft 105 kts 95°
2026-04-26 18:08 54.06299 -4.22188 9051 ft 105 kts 95°
2026-04-26 18:08 54.06290 -4.20947 9226 ft 105 kts 97°
2026-04-26 18:08 54.06278 -4.19635 9276 ft 118 kts 97°
2026-04-26 18:09 54.06265 -4.18175 9277 ft 127 kts 96°
2026-04-26 18:09 54.06255 -4.16657 9275 ft 129 kts 96°
2026-04-26 18:09 54.06245 -4.15123 9274 ft 130 kts 96°
2026-04-26 18:09 54.06234 -4.13601 9275 ft 131 kts 96°
2026-04-26 18:10 54.06093 -4.12112 9273 ft 124 kts 117°
2026-04-26 18:10 54.05799 -4.10758 9272 ft 121 kts 116°
2026-04-26 18:10 54.05524 -4.09420 9269 ft 119 kts 116°
2026-04-26 18:10 54.05252 -4.08094 9266 ft 118 kts 116°
2026-04-26 18:11 54.04980 -4.06780 9261 ft 118 kts 116°
2026-04-26 18:11 54.04709 -4.05469 9259 ft 117 kts 116°
2026-04-26 18:11 54.04439 -4.04164 9256 ft 117 kts 116°
2026-04-26 18:11 54.04172 -4.02875 9253 ft 117 kts 116°
2026-04-26 18:12 54.03903 -4.01574 9257 ft 116 kts 116°
2026-04-26 18:12 54.03633 -4.00276 9257 ft 116 kts 116°
2026-04-26 18:12 54.03365 -3.98981 9257 ft 116 kts 116°
2026-04-26 18:12 54.03096 -3.97686 9261 ft 116 kts 116°
2026-04-26 18:13 54.02827 -3.96393 9258 ft 116 kts 117°
2026-04-26 18:13 54.02558 -3.95097 9260 ft 116 kts 117°
2026-04-26 18:13 54.02289 -3.93804 9262 ft 116 kts 117°
2026-04-26 18:13 54.02111 -3.92947 9255 ft 116 kts 117°
2026-04-26 18:14 54.01754 -3.91233 9255 ft 116 kts 116°
2026-04-26 18:14 54.01484 -3.89940 9261 ft 116 kts 117°
2026-04-26 18:14 54.01214 -3.88645 9258 ft 116 kts 116°
2026-04-26 18:14 54.00944 -3.87351 9258 ft 116 kts 116°
2026-04-26 18:15 54.00674 -3.86057 9259 ft 116 kts 117°
2026-04-26 18:15 54.00403 -3.84761 9264 ft 116 kts 116°
2026-04-26 18:15 54.00132 -3.83466 9264 ft 116 kts 117°
2026-04-26 18:15 53.99866 -3.82189 9260 ft 116 kts 117°
2026-04-26 18:16 53.99591 -3.80880 9259 ft 116 kts 117°
2026-04-26 18:16 53.99056 -3.78326 9256 ft 115 kts 117°
2026-04-26 18:16 53.98787 -3.77043 9255 ft 115 kts 117°
2026-04-26 18:17 53.98518 -3.75762 9265 ft 115 kts 117°
2026-04-26 18:17 53.98248 -3.74476 9262 ft 116 kts 117°
2026-04-26 18:17 53.97977 -3.73186 9268 ft 116 kts 117°
2026-04-26 18:17 53.97705 -3.71895 9269 ft 116 kts 117°
2026-04-26 18:18 53.97438 -3.70622 9268 ft 116 kts 117°
2026-04-26 18:18 53.97165 -3.69330 9268 ft 116 kts 117°
2026-04-26 18:18 53.96893 -3.68038 9268 ft 116 kts 117°
2026-04-26 18:18 53.96619 -3.66741 9267 ft 117 kts 116°
2026-04-26 18:19 53.96346 -3.65440 9263 ft 117 kts 116°
2026-04-26 18:19 53.96070 -3.64135 9263 ft 117 kts 116°
2026-04-26 18:19 53.95794 -3.62829 9264 ft 118 kts 116°
2026-04-26 18:19 53.95518 -3.61522 9267 ft 118 kts 116°
2026-04-26 18:20 53.95242 -3.60217 9268 ft 118 kts 116°
2026-04-26 18:20 53.94969 -3.58926 9269 ft 118 kts 116°
2026-04-26 18:20 53.94692 -3.57621 9269 ft 118 kts 116°
2026-04-26 18:20 53.94505 -3.56737 9270 ft 118 kts 116°
2026-04-26 18:21 53.94138 -3.55008 9262 ft 117 kts 115°
2026-04-26 18:21 53.93862 -3.53707 9262 ft 117 kts 115°
2026-04-26 18:21 53.93587 -3.52410 9261 ft 117 kts 115°
2026-04-26 18:21 53.93312 -3.51115 9260 ft 116 kts 115°
2026-04-26 18:22 53.93037 -3.49825 9264 ft 116 kts 116°
2026-04-26 18:22 53.92671 -3.48633 9262 ft 114 kts 126°
2026-04-26 18:22 53.92290 -3.47476 9264 ft 114 kts 125°
2026-04-26 18:22 53.91905 -3.46302 9262 ft 114 kts 125°
2026-04-26 18:23 53.91520 -3.45127 9260 ft 114 kts 125°
2026-04-26 18:23 53.91136 -3.43951 9259 ft 114 kts 125°
2026-04-26 18:23 53.90750 -3.42773 9259 ft 114 kts 125°
2026-04-26 18:23 53.90364 -3.41594 9262 ft 114 kts 125°
2026-04-26 18:24 53.89976 -3.40413 9265 ft 114 kts 125°
2026-04-26 18:24 53.89590 -3.39235 9265 ft 114 kts 125°
2026-04-26 18:24 53.89202 -3.38054 9265 ft 114 kts 125°
2026-04-26 18:24 53.88815 -3.36876 9265 ft 114 kts 125°
2026-04-26 18:25 53.88428 -3.35696 9264 ft 115 kts 125°
2026-04-26 18:25 53.88045 -3.34532 9261 ft 115 kts 125°
2026-04-26 18:25 53.87657 -3.33354 9261 ft 115 kts 125°
2026-04-26 18:25 53.87269 -3.32175 9261 ft 115 kts 125°
2026-04-26 18:26 53.86881 -3.30996 9267 ft 115 kts 125°
2026-04-26 18:26 53.86487 -3.29802 9162 ft 119 kts 125°
2026-04-26 18:26 53.86084 -3.28583 8924 ft 118 kts 124°
2026-04-26 18:26 53.85684 -3.27368 8685 ft 118 kts 124°
2026-04-26 18:27 53.85285 -3.26155 8458 ft 118 kts 124°
2026-04-26 18:27 53.84887 -3.24949 8227 ft 117 kts 124°
2026-04-26 18:27 53.84496 -3.23764 8004 ft 117 kts 124°
2026-04-26 18:27 53.84102 -3.22570 7779 ft 116 kts 124°
2026-04-26 18:28 53.83708 -3.21379 7558 ft 116 kts 124°
2026-04-26 18:28 53.83314 -3.20188 7333 ft 116 kts 124°
2026-04-26 18:28 53.82921 -3.19001 7112 ft 115 kts 124°
2026-04-26 18:28 53.82530 -3.17819 6893 ft 115 kts 124°
2026-04-26 18:29 53.82215 -3.16585 6670 ft 117 kts 97°
2026-04-26 18:29 53.82259 -3.15205 6438 ft 118 kts 89°
2026-04-26 18:29 53.82306 -3.13824 6205 ft 117 kts 89°
2026-04-26 18:29 53.82354 -3.12466 5976 ft 117 kts 89°
2026-04-26 18:30 53.82400 -3.11094 5746 ft 117 kts 90°
2026-04-26 18:30 53.82449 -3.09727 5515 ft 116 kts 90°
2026-04-26 18:30 53.82494 -3.08361 5294 ft 116 kts 90°
2026-04-26 18:30 53.82558 -3.07000 5063 ft 117 kts 89°
2026-04-26 18:31 53.82628 -3.05615 4771 ft 121 kts 87°
2026-04-26 18:31 53.82742 -3.04234 4505 ft 114 kts 84°
2026-04-26 18:31 53.82861 -3.02947 4203 ft 110 kts 83°
2026-04-26 18:31 53.82987 -3.01660 3851 ft 112 kts 84°
2026-04-26 18:32 53.83093 -3.00387 3584 ft 107 kts 90°
2026-04-26 18:32 53.83019 -2.99174 3311 ft 101 kts 109°
2026-04-26 18:32 53.82855 -2.98039 3037 ft 102 kts 110°
2026-04-26 18:32 53.82651 -2.96894 2808 ft 99 kts 113°
2026-04-26 18:33 53.82440 -2.95827 2640 ft 92 kts 115°
2026-04-26 18:33 53.82225 -2.94818 2493 ft 93 kts 115°
2026-04-26 18:33 53.81985 -2.93801 2413 ft 93 kts 115°
2026-04-26 18:33 53.81719 -2.92795 2330 ft 93 kts 129°
2026-04-26 18:34 53.81238 -2.92077 2207 ft 92 kts 154°
2026-04-26 18:34 53.80613 -2.91696 2132 ft 97 kts 171°
2026-04-26 18:34 53.79920 -2.91495 1946 ft 105 kts 174°
2026-04-26 18:34 53.79184 -2.91374 1844 ft 106 kts 179°
2026-04-26 18:35 53.78445 -2.91329 1678 ft 109 kts 193°
2026-04-26 18:35 53.77838 -2.91869 1584 ft 96 kts 236°
2026-04-26 18:35 53.77449 -2.92795 1377 ft 93 kts 238°
2026-04-26 18:35 53.77131 -2.93687 1192 ft 85 kts 245°
2026-04-26 18:36 53.76921 -2.94573 1065 ft 79 kts 256°
2026-04-26 18:36 53.76816 -2.95451 1005 ft 73 kts 275°
2026-04-26 18:36 53.76847 -2.96303 890 ft 73 kts 281°
2026-04-26 18:36 53.76884 -2.97196 710 ft 79 kts 279°
2026-04-26 18:37 53.76923 -2.98131 545 ft 78 kts 281°
2026-04-26 18:37 53.76969 -2.99041 418 ft 80 kts 281°
2026-04-26 18:37 53.77011 -2.99969 300 ft 79 kts 275°
2026-04-26 18:37 53.77059 -3.00904 179 ft 81 kts 276°
2026-04-26 18:38 53.77104 -3.01831 42 ft 73 kts 277°
2026-04-26 18:38 53.77145 -3.02613 31 ft 62 kts 273°
2026-04-26 18:38 53.77175 -3.03288 34 ft 54 kts 276°
2026-04-26 18:38 53.77215 -3.03852 35 ft 43 kts 308°
2026-04-26 18:39 53.77347 -3.04145 33 ft 28 kts 307°
2026-04-26 18:39 53.77478 -3.04339 34 ft 21 kts 21°
2026-04-26 18:39 53.77582 -3.04239 34 ft 13 kts
2026-04-26 18:39 53.77610 -3.04257 34 ft 0 kts 354°